Year,Month,Day,Hour,Minute,Value (Times are PST for windspeed in km/hr)
2016,07,03,00,00,10.50
2016,07,03,00,01,9.70
2016,07,03,00,02,13.60
2016,07,03,00,03,12.70
2016,07,03,00,04,11.00
2016,07,03,00,05,10.90
2016,07,03,00,06,11.20
2016,07,03,00,07,11.60
2016,07,03,00,08,10.50
2016,07,03,00,09,9.50
2016,07,03,00,10,7.40
2016,07,03,00,11,9.70
2016,07,03,00,12,8.60
2016,07,03,00,13,9.90
2016,07,03,00,14,9.70
2016,07,03,00,15,6.60
2016,07,03,00,16,9.10
2016,07,03,00,17,6.80
2016,07,03,00,18,3.60
2016,07,03,00,19,8.60
2016,07,03,00,20,8.80
2016,07,03,00,21,9.80
2016,07,03,00,22,9.00
2016,07,03,00,23,12.10
2016,07,03,00,24,14.90
2016,07,03,00,25,7.20
2016,07,03,00,26,10.20
2016,07,03,00,27,7.20
2016,07,03,00,28,6.70
2016,07,03,00,29,9.40
2016,07,03,00,30,5.20
2016,07,03,00,31,7.20
2016,07,03,00,32,6.80
2016,07,03,00,33,6.20
2016,07,03,00,34,6.50
2016,07,03,00,35,5.40
2016,07,03,00,36,9.50
2016,07,03,00,37,7.80
2016,07,03,00,38,9.70
2016,07,03,00,39,7.20
2016,07,03,00,40,9.00
2016,07,03,00,41,6.70
2016,07,03,00,42,5.80
2016,07,03,00,43,6.60
2016,07,03,00,44,4.10
2016,07,03,00,45,7.40
2016,07,03,00,46,6.60
2016,07,03,00,47,6.70
2016,07,03,00,48,4.60
2016,07,03,00,49,5.50
2016,07,03,00,50,6.10
2016,07,03,00,51,4.00
2016,07,03,00,52,4.00
2016,07,03,00,53,3.90
2016,07,03,00,54,4.50
2016,07,03,00,55,3.80
2016,07,03,00,56,5.00
2016,07,03,00,57,6.90
2016,07,03,00,58,5.30
2016,07,03,00,59,4.40
2016,07,03,01,00,4.20
2016,07,03,01,01,6.50
2016,07,03,01,02,5.80
2016,07,03,01,03,4.50
2016,07,03,01,04,4.00
2016,07,03,01,05,4.60
2016,07,03,01,06,4.10
2016,07,03,01,07,4.60
2016,07,03,01,08,4.40
2016,07,03,01,09,3.70
2016,07,03,01,10,4.10
2016,07,03,01,11,2.90
2016,07,03,01,12,4.80
2016,07,03,01,13,5.00
2016,07,03,01,14,3.50
2016,07,03,01,15,4.20
2016,07,03,01,16,5.20
2016,07,03,01,17,1.50
2016,07,03,01,18,1.10
2016,07,03,01,19,3.30
2016,07,03,01,20,2.60
2016,07,03,01,21,3.50
2016,07,03,01,22,2.20
2016,07,03,01,23,1.00
2016,07,03,01,24,3.30
2016,07,03,01,25,1.20
2016,07,03,01,26,2.30
2016,07,03,01,27,2.90
2016,07,03,01,28,2.90
2016,07,03,01,29,1.50
2016,07,03,01,30,0.90
2016,07,03,01,31,2.30
2016,07,03,01,32,3.10
2016,07,03,01,33,3.50
2016,07,03,01,34,4.20
2016,07,03,01,35,3.10
2016,07,03,01,36,6.10
2016,07,03,01,37,3.60
2016,07,03,01,38,4.40
2016,07,03,01,39,4.10
2016,07,03,01,40,4.40
2016,07,03,01,41,4.60
2016,07,03,01,42,4.80
2016,07,03,01,43,4.70
2016,07,03,01,44,3.40
2016,07,03,01,45,3.70
2016,07,03,01,46,4.60
2016,07,03,01,47,5.00
2016,07,03,01,48,6.40
2016,07,03,01,49,4.40
2016,07,03,01,50,5.50
2016,07,03,01,51,4.90
2016,07,03,01,52,3.60
2016,07,03,01,53,4.80
2016,07,03,01,54,2.40
2016,07,03,01,55,2.10
2016,07,03,01,56,3.70
2016,07,03,01,57,5.90
2016,07,03,01,58,6.50
2016,07,03,01,59,5.70
2016,07,03,02,00,7.60
2016,07,03,02,01,8.70
2016,07,03,02,02,5.90
2016,07,03,02,03,7.90
2016,07,03,02,04,12.10
2016,07,03,02,05,8.60
2016,07,03,02,06,11.00
2016,07,03,02,07,8.60
2016,07,03,02,08,5.00
2016,07,03,02,09,7.80
2016,07,03,02,10,7.20
2016,07,03,02,11,9.30
2016,07,03,02,12,7.00
2016,07,03,02,13,7.20
2016,07,03,02,14,7.50
2016,07,03,02,15,5.00
2016,07,03,02,16,6.00
2016,07,03,02,17,4.40
2016,07,03,02,18,4.70
2016,07,03,02,19,3.90
2016,07,03,02,20,2.10
2016,07,03,02,21,3.50
2016,07,03,02,22,2.80
2016,07,03,02,23,1.40
2016,07,03,02,24,3.10
2016,07,03,02,25,6.30
2016,07,03,02,26,4.50
2016,07,03,02,27,2.80
2016,07,03,02,28,6.40
2016,07,03,02,29,6.60
2016,07,03,02,30,4.50
2016,07,03,02,31,8.60
2016,07,03,02,32,11.30
2016,07,03,02,33,10.70
2016,07,03,02,34,9.40
2016,07,03,02,35,5.60
2016,07,03,02,36,5.30
2016,07,03,02,37,5.00
2016,07,03,02,38,6.70
2016,07,03,02,39,4.20
2016,07,03,02,40,5.50
2016,07,03,02,41,6.30
2016,07,03,02,42,5.90
2016,07,03,02,43,1.40
2016,07,03,02,44,2.00
2016,07,03,02,45,1.80
2016,07,03,02,46,1.60
2016,07,03,02,47,4.80
2016,07,03,02,48,1.00
2016,07,03,02,49,6.20
2016,07,03,02,50,5.90
2016,07,03,02,51,10.60
2016,07,03,02,52,10.50
2016,07,03,02,53,6.30
2016,07,03,02,54,5.00
2016,07,03,02,55,1.80
2016,07,03,02,56,3.40
2016,07,03,02,57,4.30
2016,07,03,02,58,0.70
2016,07,03,02,59,4.50
2016,07,03,03,00,4.00
2016,07,03,03,01,6.40
2016,07,03,03,02,4.90
2016,07,03,03,03,4.20
2016,07,03,03,04,3.80
2016,07,03,03,05,7.30
2016,07,03,03,06,6.40
2016,07,03,03,07,9.40
2016,07,03,03,08,9.10
2016,07,03,03,09,6.70
2016,07,03,03,10,7.40
2016,07,03,03,11,6.80
2016,07,03,03,12,6.10
2016,07,03,03,13,7.80
2016,07,03,03,14,4.30
2016,07,03,03,15,5.10
2016,07,03,03,16,8.30
2016,07,03,03,17,9.80
2016,07,03,03,18,10.40
2016,07,03,03,19,9.50
2016,07,03,03,20,9.40
2016,07,03,03,21,7.40
2016,07,03,03,22,10.10
2016,07,03,03,23,4.90
2016,07,03,03,24,5.00
2016,07,03,03,25,6.30
2016,07,03,03,26,7.20
2016,07,03,03,27,4.80
2016,07,03,03,28,4.20
2016,07,03,03,29,8.10
2016,07,03,03,30,5.50
2016,07,03,03,31,6.10
2016,07,03,03,32,10.00
2016,07,03,03,33,8.50
2016,07,03,03,34,7.80
2016,07,03,03,35,6.70
2016,07,03,03,36,8.10
2016,07,03,03,37,5.20
2016,07,03,03,38,5.00
2016,07,03,03,39,3.10
2016,07,03,03,40,5.60
2016,07,03,03,41,5.20
2016,07,03,03,42,6.40
2016,07,03,03,43,7.80
2016,07,03,03,44,6.40
2016,07,03,03,45,6.70
2016,07,03,03,46,6.60
2016,07,03,03,47,8.10
2016,07,03,03,48,7.90
2016,07,03,03,49,9.10
2016,07,03,03,50,7.40
2016,07,03,03,51,8.40
2016,07,03,03,52,8.90
2016,07,03,03,53,9.80
2016,07,03,03,54,8.10
2016,07,03,03,55,7.00
2016,07,03,03,56,7.10
2016,07,03,03,57,10.80
2016,07,03,03,58,11.60
2016,07,03,03,59,6.90
2016,07,03,04,00,9.00
2016,07,03,04,01,12.00
2016,07,03,04,02,7.00
2016,07,03,04,03,4.10
2016,07,03,04,04,9.20
2016,07,03,04,05,7.30
2016,07,03,04,06,6.20
2016,07,03,04,07,6.40
2016,07,03,04,08,5.00
2016,07,03,04,09,1.80
2016,07,03,04,10,7.40
2016,07,03,04,11,7.60
2016,07,03,04,12,10.70
2016,07,03,04,13,6.80
2016,07,03,04,14,9.50
2016,07,03,04,15,8.90
2016,07,03,04,16,6.40
2016,07,03,04,17,6.40
2016,07,03,04,18,6.30
2016,07,03,04,19,9.70
2016,07,03,04,20,4.70
2016,07,03,04,21,4.80
2016,07,03,04,22,7.00
2016,07,03,04,23,6.80
2016,07,03,04,24,8.40
2016,07,03,04,25,5.30
2016,07,03,04,26,6.80
2016,07,03,04,27,3.10
2016,07,03,04,28,5.20
2016,07,03,04,29,5.80
2016,07,03,04,30,7.90
2016,07,03,04,31,5.40
2016,07,03,04,32,9.70
2016,07,03,04,33,4.50
2016,07,03,04,34,8.20
2016,07,03,04,35,7.70
2016,07,03,04,36,7.30
2016,07,03,04,37,7.50
2016,07,03,04,38,10.00
2016,07,03,04,39,10.70
2016,07,03,04,40,5.80
2016,07,03,04,41,6.60
2016,07,03,04,42,6.80
2016,07,03,04,43,8.80
2016,07,03,04,44,8.00
2016,07,03,04,45,10.50
2016,07,03,04,46,11.00
2016,07,03,04,47,9.80
2016,07,03,04,48,9.10
2016,07,03,04,49,11.60
2016,07,03,04,50,9.00
2016,07,03,04,51,9.00
2016,07,03,04,52,9.10
2016,07,03,04,53,9.20
2016,07,03,04,54,11.60
2016,07,03,04,55,13.20
2016,07,03,04,56,9.90
2016,07,03,04,57,11.20
2016,07,03,04,58,12.40
2016,07,03,04,59,14.80
2016,07,03,05,00,12.60
2016,07,03,05,01,14.60
2016,07,03,05,02,9.70
2016,07,03,05,03,7.10
2016,07,03,05,04,13.50
2016,07,03,05,05,12.10
2016,07,03,05,06,9.10
2016,07,03,05,07,9.80
2016,07,03,05,08,14.20
2016,07,03,05,09,11.10
2016,07,03,05,10,9.20
2016,07,03,05,11,8.10
2016,07,03,05,12,7.70
2016,07,03,05,13,8.60
2016,07,03,05,14,8.40
2016,07,03,05,15,7.90
2016,07,03,05,16,10.50
2016,07,03,05,17,11.90
2016,07,03,05,18,9.20
2016,07,03,05,19,9.40
2016,07,03,05,20,10.80
2016,07,03,05,21,9.40
2016,07,03,05,22,10.30
2016,07,03,05,23,11.30
2016,07,03,05,24,7.10
2016,07,03,05,25,8.60
2016,07,03,05,26,7.20
2016,07,03,05,27,9.20
2016,07,03,05,28,10.10
2016,07,03,05,29,7.80
2016,07,03,05,30,7.90
2016,07,03,05,31,10.40
2016,07,03,05,32,9.20
2016,07,03,05,33,10.50
2016,07,03,05,34,14.10
2016,07,03,05,35,11.00
2016,07,03,05,36,11.30
2016,07,03,05,37,9.00
2016,07,03,05,38,7.00
2016,07,03,05,39,9.00
2016,07,03,05,40,12.30
2016,07,03,05,41,11.10
2016,07,03,05,42,11.30
2016,07,03,05,43,9.50
2016,07,03,05,44,12.90
2016,07,03,05,45,11.00
2016,07,03,05,46,11.90
2016,07,03,05,47,11.80
2016,07,03,05,48,12.40
2016,07,03,05,49,12.10
2016,07,03,05,50,11.30
2016,07,03,05,51,13.30
2016,07,03,05,52,9.70
2016,07,03,05,53,9.70
2016,07,03,05,54,6.10
2016,07,03,05,55,7.50
2016,07,03,05,56,10.40
2016,07,03,05,57,10.80
2016,07,03,05,58,10.60
2016,07,03,05,59,11.30
2016,07,03,06,00,10.60
2016,07,03,06,01,11.40
2016,07,03,06,02,14.60
2016,07,03,06,03,9.40
2016,07,03,06,04,9.40
2016,07,03,06,05,7.80
2016,07,03,06,06,8.90
2016,07,03,06,07,10.00
2016,07,03,06,08,13.60
2016,07,03,06,09,14.40
2016,07,03,06,10,9.30
2016,07,03,06,11,10.80
2016,07,03,06,12,10.10
2016,07,03,06,13,10.10
2016,07,03,06,14,11.70
2016,07,03,06,15,9.20
2016,07,03,06,16,10.00
2016,07,03,06,17,9.10
2016,07,03,06,18,11.80
2016,07,03,06,19,8.50
2016,07,03,06,20,9.10
2016,07,03,06,21,11.30
2016,07,03,06,22,12.90
2016,07,03,06,23,7.20
2016,07,03,06,24,11.20
2016,07,03,06,25,11.10
2016,07,03,06,26,10.70
2016,07,03,06,27,9.00
2016,07,03,06,28,10.10
2016,07,03,06,29,14.10
2016,07,03,06,30,9.80
2016,07,03,06,31,11.10
2016,07,03,06,32,10.20
2016,07,03,06,33,13.80
2016,07,03,06,34,11.60
2016,07,03,06,35,9.70
2016,07,03,06,36,12.00
2016,07,03,06,37,8.50
2016,07,03,06,38,10.80
2016,07,03,06,39,11.10
2016,07,03,06,40,11.10
2016,07,03,06,41,9.60
2016,07,03,06,42,10.50
2016,07,03,06,43,10.60
2016,07,03,06,44,11.30
2016,07,03,06,45,9.50
2016,07,03,06,46,11.30
2016,07,03,06,47,10.90
2016,07,03,06,48,7.70
2016,07,03,06,49,10.80
2016,07,03,06,50,10.80
2016,07,03,06,51,9.40
2016,07,03,06,52,8.50
2016,07,03,06,53,14.30
2016,07,03,06,54,10.00
2016,07,03,06,55,10.20
2016,07,03,06,56,12.10
2016,07,03,06,57,10.10
2016,07,03,06,58,9.40
2016,07,03,06,59,9.00
2016,07,03,07,00,5.60
2016,07,03,07,01,11.70
2016,07,03,07,02,10.60
2016,07,03,07,03,9.10
2016,07,03,07,04,10.50
2016,07,03,07,05,9.50
2016,07,03,07,06,9.20
2016,07,03,07,07,9.70
2016,07,03,07,08,9.70
2016,07,03,07,09,9.80
2016,07,03,07,10,12.70
2016,07,03,07,11,8.90
2016,07,03,07,12,9.80
2016,07,03,07,13,9.00
2016,07,03,07,14,7.00
2016,07,03,07,15,10.40
2016,07,03,07,16,9.80
2016,07,03,07,17,10.00
2016,07,03,07,18,9.40
2016,07,03,07,19,10.80
2016,07,03,07,20,9.00
2016,07,03,07,21,6.20
2016,07,03,07,22,7.10
2016,07,03,07,23,14.60
2016,07,03,07,24,10.10
2016,07,03,07,25,11.00
2016,07,03,07,26,12.30
2016,07,03,07,27,12.10
2016,07,03,07,28,8.50
2016,07,03,07,29,12.30
2016,07,03,07,30,11.40
2016,07,03,07,31,12.90
2016,07,03,07,32,9.70
2016,07,03,07,33,8.80
2016,07,03,07,34,9.60
2016,07,03,07,35,8.20
2016,07,03,07,36,14.00
2016,07,03,07,37,12.90
2016,07,03,07,38,11.50
2016,07,03,07,39,9.70
2016,07,03,07,40,14.00
2016,07,03,07,41,11.50
2016,07,03,07,42,12.60
2016,07,03,07,43,10.40
2016,07,03,07,44,10.10
2016,07,03,07,45,14.30
2016,07,03,07,46,11.70
2016,07,03,07,47,12.00
2016,07,03,07,48,13.50
2016,07,03,07,49,19.30
2016,07,03,07,50,16.20
2016,07,03,07,51,11.20
2016,07,03,07,52,9.70
2016,07,03,07,53,10.20
2016,07,03,07,54,6.50
2016,07,03,07,55,11.60
2016,07,03,07,56,11.10
2016,07,03,07,57,11.30
2016,07,03,07,58,10.90
2016,07,03,07,59,12.50
2016,07,03,08,00,11.50
2016,07,03,08,01,12.90
2016,07,03,08,02,12.70
2016,07,03,08,03,9.40
2016,07,03,08,04,6.70
2016,07,03,08,05,10.10
2016,07,03,08,06,9.80
2016,07,03,08,07,10.50
2016,07,03,08,08,9.50
2016,07,03,08,09,11.40
2016,07,03,08,10,7.30
2016,07,03,08,11,10.90
2016,07,03,08,12,12.60
2016,07,03,08,13,12.50
2016,07,03,08,14,10.20
2016,07,03,08,15,9.60
2016,07,03,08,16,10.20
2016,07,03,08,17,9.70
2016,07,03,08,18,9.70
2016,07,03,08,19,6.40
2016,07,03,08,20,9.90
2016,07,03,08,21,12.10
2016,07,03,08,22,14.90
2016,07,03,08,23,10.70
2016,07,03,08,24,7.20
2016,07,03,08,25,6.90
2016,07,03,08,26,6.60
2016,07,03,08,27,7.40
2016,07,03,08,28,12.20
2016,07,03,08,29,7.80
2016,07,03,08,30,13.20
2016,07,03,08,31,11.00
2016,07,03,08,32,11.30
2016,07,03,08,33,9.70
2016,07,03,08,34,13.50
2016,07,03,08,35,8.20
2016,07,03,08,36,11.70
2016,07,03,08,37,10.80
2016,07,03,08,38,13.00
2016,07,03,08,39,9.50
2016,07,03,08,40,14.00
2016,07,03,08,41,11.50
2016,07,03,08,42,12.90
2016,07,03,08,43,10.30
2016,07,03,08,44,12.50
2016,07,03,08,45,10.50
2016,07,03,08,46,12.90
2016,07,03,08,47,13.20
2016,07,03,08,48,15.70
2016,07,03,08,49,12.00
2016,07,03,08,50,13.50
2016,07,03,08,51,13.50
2016,07,03,08,52,15.40
2016,07,03,08,53,11.80
2016,07,03,08,54,9.90
2016,07,03,08,55,14.30
2016,07,03,08,56,14.00
2016,07,03,08,57,14.70
2016,07,03,08,58,16.40
2016,07,03,08,59,11.80
2016,07,03,09,00,13.00
2016,07,03,09,01,13.60
2016,07,03,09,02,17.80
2016,07,03,09,03,15.70
2016,07,03,09,04,18.50
2016,07,03,09,05,13.80
2016,07,03,09,06,22.50
2016,07,03,09,07,12.80
2016,07,03,09,08,18.00
2016,07,03,09,09,14.00
2016,07,03,09,10,15.40
2016,07,03,09,11,14.90
2016,07,03,09,12,12.50
2016,07,03,09,13,20.40
2016,07,03,09,14,20.60
2016,07,03,09,15,17.30
2016,07,03,09,16,17.30
2016,07,03,09,17,19.50
2016,07,03,09,18,17.40
2016,07,03,09,19,10.10
2016,07,03,09,20,19.20
2016,07,03,09,21,20.40
2016,07,03,09,22,18.50
2016,07,03,09,23,11.60
2016,07,03,09,24,16.10
2016,07,03,09,25,12.70
2016,07,03,09,26,10.70
2016,07,03,09,27,8.40
2016,07,03,09,28,13.80
2016,07,03,09,29,18.30
2016,07,03,09,30,21.30
2016,07,03,09,31,17.20
2016,07,03,09,32,16.80
2016,07,03,09,33,11.00
2016,07,03,09,34,10.90
2016,07,03,09,35,15.10
2016,07,03,09,36,16.90
2016,07,03,09,37,13.60
2016,07,03,09,38,15.30
2016,07,03,09,39,16.70
2016,07,03,09,40,20.30
2016,07,03,09,41,16.60
2016,07,03,09,42,12.80
2016,07,03,09,43,11.80
2016,07,03,09,44,14.90
2016,07,03,09,45,12.30
2016,07,03,09,46,9.60
2016,07,03,09,47,12.20
2016,07,03,09,48,13.10
2016,07,03,09,49,17.40
2016,07,03,09,50,17.20
2016,07,03,09,51,16.40
2016,07,03,09,52,16.70
2016,07,03,09,53,17.30
2016,07,03,09,54,19.20
2016,07,03,09,55,15.60
2016,07,03,09,56,11.00
2016,07,03,09,57,9.10
2016,07,03,09,58,9.10
2016,07,03,09,59,17.70
2016,07,03,10,00,15.20
2016,07,03,10,01,12.60
2016,07,03,10,02,11.10
2016,07,03,10,03,10.40
2016,07,03,10,04,15.50
2016,07,03,10,05,12.50
2016,07,03,10,06,14.50
2016,07,03,10,07,16.70
2016,07,03,10,08,11.00
2016,07,03,10,09,13.00
2016,07,03,10,10,11.60
2016,07,03,10,11,16.40
2016,07,03,10,12,17.50
2016,07,03,10,13,14.10
2016,07,03,10,14,16.10
2016,07,03,10,15,15.50
2016,07,03,10,16,12.40
2016,07,03,10,17,15.20
2016,07,03,10,18,13.10
2016,07,03,10,19,15.20
2016,07,03,10,20,16.40
2016,07,03,10,21,13.70
2016,07,03,10,22,9.60
2016,07,03,10,23,9.50
2016,07,03,10,24,14.60
2016,07,03,10,25,15.40
2016,07,03,10,26,10.50
2016,07,03,10,27,16.20
2016,07,03,10,28,13.50
2016,07,03,10,29,17.90
2016,07,03,10,30,19.80
2016,07,03,10,31,14.60
2016,07,03,10,32,17.50
2016,07,03,10,33,13.20
2016,07,03,10,34,14.70
2016,07,03,10,35,13.60
2016,07,03,10,36,13.70
2016,07,03,10,37,13.20
2016,07,03,10,38,17.20
2016,07,03,10,39,21.60
2016,07,03,10,40,15.30
2016,07,03,10,41,15.40
2016,07,03,10,42,11.80
2016,07,03,10,43,19.40
2016,07,03,10,44,16.90
2016,07,03,10,45,11.30
2016,07,03,10,46,17.00
2016,07,03,10,47,17.20
2016,07,03,10,48,17.40
2016,07,03,10,49,14.60
2016,07,03,10,50,16.20
2016,07,03,10,51,17.60
2016,07,03,10,52,14.80
2016,07,03,10,53,14.80
2016,07,03,10,54,14.70
2016,07,03,10,55,9.40
2016,07,03,10,56,11.00
2016,07,03,10,57,15.20
2016,07,03,10,58,14.80
2016,07,03,10,59,16.50
2016,07,03,11,00,16.70
2016,07,03,11,01,8.50
2016,07,03,11,02,14.60
2016,07,03,11,03,14.30
2016,07,03,11,04,13.20
2016,07,03,11,05,15.30
2016,07,03,11,06,14.30
2016,07,03,11,07,13.30
2016,07,03,11,08,14.60
2016,07,03,11,09,13.30
2016,07,03,11,10,11.10
2016,07,03,11,11,13.10
2016,07,03,11,12,14.90
2016,07,03,11,13,11.40
2016,07,03,11,14,11.30
2016,07,03,11,15,9.70
2016,07,03,11,16,12.90
2016,07,03,11,17,14.80
2016,07,03,11,18,14.80
2016,07,03,11,19,15.10
2016,07,03,11,20,12.70
2016,07,03,11,21,14.90
2016,07,03,11,22,13.40
2016,07,03,11,23,10.10
2016,07,03,11,24,12.40
2016,07,03,11,25,9.80
2016,07,03,11,26,13.10
2016,07,03,11,27,14.10
2016,07,03,11,28,10.00
2016,07,03,11,29,9.60
2016,07,03,11,30,13.30
2016,07,03,11,31,8.60
2016,07,03,11,32,15.80
2016,07,03,11,33,13.00
2016,07,03,11,34,10.50
2016,07,03,11,35,14.40
2016,07,03,11,36,14.00
2016,07,03,11,37,14.80
2016,07,03,11,38,16.10
2016,07,03,11,39,9.00
2016,07,03,11,40,20.20
2016,07,03,11,41,18.50
2016,07,03,11,42,14.10
2016,07,03,11,43,22.70
2016,07,03,11,44,17.40
2016,07,03,11,45,18.60
2016,07,03,11,46,20.50
2016,07,03,11,47,14.00
2016,07,03,11,48,19.50
2016,07,03,11,49,14.50
2016,07,03,11,50,13.80
2016,07,03,11,51,15.40
2016,07,03,11,52,15.10
2016,07,03,11,53,19.20
2016,07,03,11,54,14.80
2016,07,03,11,55,13.00
2016,07,03,11,56,12.20
2016,07,03,11,57,16.20
2016,07,03,11,58,15.40
2016,07,03,11,59,19.70
2016,07,03,12,00,14.60
2016,07,03,12,01,18.70
2016,07,03,12,02,18.40
2016,07,03,12,03,18.00
2016,07,03,12,04,18.40
2016,07,03,12,05,13.40
2016,07,03,12,06,13.20
2016,07,03,12,07,16.60
2016,07,03,12,08,20.80
2016,07,03,12,09,17.00
2016,07,03,12,10,17.80
2016,07,03,12,11,19.20
2016,07,03,12,12,16.30
2016,07,03,12,13,16.30
2016,07,03,12,14,17.40
2016,07,03,12,15,16.60
2016,07,03,12,16,14.50
2016,07,03,12,17,11.40
2016,07,03,12,18,17.70
2016,07,03,12,19,15.30
2016,07,03,12,20,14.50
2016,07,03,12,21,16.80
2016,07,03,12,22,21.90
2016,07,03,12,23,17.60
2016,07,03,12,24,15.10
2016,07,03,12,25,19.50
2016,07,03,12,26,21.20
2016,07,03,12,27,17.00
2016,07,03,12,28,14.30
2016,07,03,12,29,16.20
2016,07,03,12,30,11.30
2016,07,03,12,31,17.00
2016,07,03,12,32,17.00
2016,07,03,12,33,20.80
2016,07,03,12,34,18.50
2016,07,03,12,35,13.70
2016,07,03,12,36,16.00
2016,07,03,12,37,14.70
2016,07,03,12,38,14.60
2016,07,03,12,39,12.60
2016,07,03,12,40,16.20
2016,07,03,12,41,17.30
2016,07,03,12,42,18.50
2016,07,03,12,43,17.60
2016,07,03,12,44,15.30
2016,07,03,12,45,19.00
2016,07,03,12,46,18.10
2016,07,03,12,47,20.00
2016,07,03,12,48,18.30
2016,07,03,12,49,15.70
2016,07,03,12,50,17.00
2016,07,03,12,51,15.90
2016,07,03,12,52,17.30
2016,07,03,12,53,20.60
2016,07,03,12,54,19.60
2016,07,03,12,55,13.70
2016,07,03,12,56,10.20
2016,07,03,12,57,12.80
2016,07,03,12,58,14.50
2016,07,03,12,59,11.60
2016,07,03,13,00,12.70
2016,07,03,13,01,14.90
2016,07,03,13,02,17.10
2016,07,03,13,03,12.60
2016,07,03,13,04,15.90
2016,07,03,13,05,20.60
2016,07,03,13,06,14.30
2016,07,03,13,07,12.40
2016,07,03,13,08,19.20
2016,07,03,13,09,11.80
2016,07,03,13,10,22.20
2016,07,03,13,11,13.20
2016,07,03,13,12,12.90
2016,07,03,13,13,14.00
2016,07,03,13,14,13.60
2016,07,03,13,15,14.30
2016,07,03,13,16,18.10
2016,07,03,13,17,18.30
2016,07,03,13,18,19.90
2016,07,03,13,19,14.00
2016,07,03,13,20,12.20
2016,07,03,13,21,11.50
2016,07,03,13,22,9.20
2016,07,03,13,23,15.90
2016,07,03,13,24,18.40
2016,07,03,13,25,18.40
2016,07,03,13,26,13.30
2016,07,03,13,27,18.50
2016,07,03,13,28,18.90
2016,07,03,13,29,24.50
2016,07,03,13,30,19.80
2016,07,03,13,31,20.40
2016,07,03,13,32,20.90
2016,07,03,13,33,23.30
2016,07,03,13,34,25.60
2016,07,03,13,35,23.70
2016,07,03,13,36,19.70
2016,07,03,13,37,18.50
2016,07,03,13,38,15.90
2016,07,03,13,39,14.30
2016,07,03,13,40,21.10
2016,07,03,13,41,19.50
2016,07,03,13,42,21.20
2016,07,03,13,43,17.60
2016,07,03,13,44,20.80
2016,07,03,13,45,18.90
2016,07,03,13,46,21.10
2016,07,03,13,47,20.00
2016,07,03,13,48,25.80
2016,07,03,13,49,19.90
2016,07,03,13,50,16.50
2016,07,03,13,51,20.30
2016,07,03,13,52,20.60
2016,07,03,13,53,17.70
2016,07,03,13,54,19.50
2016,07,03,13,55,17.50
2016,07,03,13,56,19.50
2016,07,03,13,57,21.90
2016,07,03,13,58,23.30
2016,07,03,13,59,21.60
2016,07,03,14,00,16.20
2016,07,03,14,01,19.90
2016,07,03,14,02,19.50
2016,07,03,14,03,20.80
2016,07,03,14,04,14.60
2016,07,03,14,05,17.00
2016,07,03,14,06,12.70
2016,07,03,14,07,13.30
2016,07,03,14,08,20.10
2016,07,03,14,09,20.90
2016,07,03,14,10,19.80
2016,07,03,14,11,16.70
2016,07,03,14,12,16.20
2016,07,03,14,13,13.30
2016,07,03,14,14,17.90
2016,07,03,14,15,25.60
2016,07,03,14,16,24.70
2016,07,03,14,17,20.10
2016,07,03,14,18,24.00
2016,07,03,14,19,25.60
2016,07,03,14,20,20.80
2016,07,03,14,21,22.80
2016,07,03,14,22,20.40
2016,07,03,14,23,15.10
2016,07,03,14,24,13.70
2016,07,03,14,25,12.80
2016,07,03,14,26,20.20
2016,07,03,14,27,24.40
2016,07,03,14,28,27.40
2016,07,03,14,29,16.20
2016,07,03,14,30,19.70
2016,07,03,14,31,21.40
2016,07,03,14,32,13.40
2016,07,03,14,33,21.30
2016,07,03,14,34,24.10
2016,07,03,14,35,29.50
2016,07,03,14,36,24.00
2016,07,03,14,37,22.20
2016,07,03,14,38,23.10
2016,07,03,14,39,21.70
2016,07,03,14,40,22.30
2016,07,03,14,41,18.70
2016,07,03,14,42,22.70
2016,07,03,14,43,24.10
2016,07,03,14,44,19.10
2016,07,03,14,45,17.30
2016,07,03,14,46,21.00
2016,07,03,14,47,22.00
2016,07,03,14,48,19.80
2016,07,03,14,49,21.50
2016,07,03,14,50,17.70
2016,07,03,14,51,18.10
2016,07,03,14,52,20.70
2016,07,03,14,53,18.80
2016,07,03,14,54,17.60
2016,07,03,14,55,20.80
2016,07,03,14,56,16.20
2016,07,03,14,57,19.10
2016,07,03,14,58,22.50
2016,07,03,14,59,15.50
2016,07,03,15,00,21.10
2016,07,03,15,01,21.20
2016,07,03,15,02,20.10
2016,07,03,15,03,24.20
2016,07,03,15,04,20.60
2016,07,03,15,05,16.30
2016,07,03,15,06,17.30
2016,07,03,15,07,16.70
2016,07,03,15,08,10.90
2016,07,03,15,09,8.90
2016,07,03,15,10,14.00
2016,07,03,15,11,10.10
2016,07,03,15,12,12.70
2016,07,03,15,13,14.90
2016,07,03,15,14,15.90
2016,07,03,15,15,22.70
2016,07,03,15,16,21.10
2016,07,03,15,17,22.40
2016,07,03,15,18,24.90
2016,07,03,15,19,23.00
2016,07,03,15,20,18.10
2016,07,03,15,21,17.50
2016,07,03,15,22,20.90
2016,07,03,15,23,18.30
2016,07,03,15,24,24.10
2016,07,03,15,25,22.30
2016,07,03,15,26,19.50
2016,07,03,15,27,15.40
2016,07,03,15,28,19.40
2016,07,03,15,29,20.00
2016,07,03,15,30,22.90
2016,07,03,15,31,19.90
2016,07,03,15,32,16.10
2016,07,03,15,33,14.40
2016,07,03,15,34,11.60
2016,07,03,15,35,14.70
2016,07,03,15,36,14.60
2016,07,03,15,37,20.00
2016,07,03,15,38,19.50
2016,07,03,15,39,20.40
2016,07,03,15,40,8.60
2016,07,03,15,41,17.10
2016,07,03,15,42,16.80
2016,07,03,15,43,15.30
2016,07,03,15,44,13.90
2016,07,03,15,45,18.30
2016,07,03,15,46,16.00
2016,07,03,15,47,18.10
2016,07,03,15,48,18.20
2016,07,03,15,49,16.90
2016,07,03,15,50,18.30
2016,07,03,15,51,16.00
2016,07,03,15,52,11.30
2016,07,03,15,53,9.90
2016,07,03,15,54,17.00
2016,07,03,15,55,16.50
2016,07,03,15,56,23.30
2016,07,03,15,57,14.80
2016,07,03,15,58,14.80
2016,07,03,15,59,16.70
2016,07,03,16,00,18.90
2016,07,03,16,01,11.60
2016,07,03,16,02,14.60
2016,07,03,16,03,18.30
2016,07,03,16,04,24.00
2016,07,03,16,05,21.10
2016,07,03,16,06,20.80
2016,07,03,16,07,18.10
2016,07,03,16,08,15.50
2016,07,03,16,09,20.90
2016,07,03,16,10,18.70
2016,07,03,16,11,17.30
2016,07,03,16,12,13.80
2016,07,03,16,13,17.50
2016,07,03,16,14,21.20
2016,07,03,16,15,24.40
2016,07,03,16,16,17.50
2016,07,03,16,17,17.80
2016,07,03,16,18,20.60
2016,07,03,16,19,16.20
2016,07,03,16,20,15.30
2016,07,03,16,21,16.00
2016,07,03,16,22,16.50
2016,07,03,16,23,16.60
2016,07,03,16,24,19.40
2016,07,03,16,25,15.20
2016,07,03,16,26,18.00
2016,07,03,16,27,15.60
2016,07,03,16,28,15.50
2016,07,03,16,29,17.70
2016,07,03,16,30,18.00
2016,07,03,16,31,14.90
2016,07,03,16,32,17.00
2016,07,03,16,33,13.00
2016,07,03,16,34,15.40
2016,07,03,16,35,9.70
2016,07,03,16,36,14.60
2016,07,03,16,37,17.90
2016,07,03,16,38,21.90
2016,07,03,16,39,16.50
2016,07,03,16,40,19.60
2016,07,03,16,41,18.80
2016,07,03,16,42,21.20
2016,07,03,16,43,15.90
2016,07,03,16,44,24.40
2016,07,03,16,45,16.20
2016,07,03,16,46,17.70
2016,07,03,16,47,22.30
2016,07,03,16,48,25.20
2016,07,03,16,49,26.00
2016,07,03,16,50,23.30
2016,07,03,16,51,18.30
2016,07,03,16,52,22.20
2016,07,03,16,53,18.70
2016,07,03,16,54,24.70
2016,07,03,16,55,17.60
2016,07,03,16,56,20.60
2016,07,03,16,57,22.50
2016,07,03,16,58,17.90
2016,07,03,16,59,17.90
2016,07,03,17,00,20.20
2016,07,03,17,01,25.20
2016,07,03,17,02,17.20
2016,07,03,17,03,17.50
2016,07,03,17,04,16.80
2016,07,03,17,05,21.40
2016,07,03,17,06,21.60
2016,07,03,17,07,21.40
2016,07,03,17,08,20.80
2016,07,03,17,09,19.00
2016,07,03,17,10,20.50
2016,07,03,17,11,15.10
2016,07,03,17,12,17.40
2016,07,03,17,13,19.40
2016,07,03,17,14,24.80
2016,07,03,17,15,16.70
2016,07,03,17,16,15.70
2016,07,03,17,17,18.10
2016,07,03,17,18,16.50
2016,07,03,17,19,16.90
2016,07,03,17,20,16.00
2016,07,03,17,21,12.10
2016,07,03,17,22,12.00
2016,07,03,17,23,25.60
2016,07,03,17,24,20.30
2016,07,03,17,25,18.90
2016,07,03,17,26,21.50
2016,07,03,17,27,21.40
2016,07,03,17,28,18.40
2016,07,03,17,29,23.10
2016,07,03,17,30,20.30
2016,07,03,17,31,21.70
2016,07,03,17,32,17.20
2016,07,03,17,33,17.30
2016,07,03,17,34,19.60
2016,07,03,17,35,17.90